This is the latest recevied weather packets stored in our database for station/object K6GMW. If no packets are shown the sender has not sent any weather packets the latest 10 day(s).
| Time | Temp. | Humidity | Pressure | Rain* | Wind** | Luminosity | Snow |
|---|---|---|---|---|---|---|---|
| 1788071039 | 25.56° C | 62% | 1017.5 hPa | 0 mm | - | 0 W/m² | - |
| 1788070735 | 25° C | 62% | 1017.5 hPa | 0 mm | - | 0 W/m² | - |
| 1788070434 | 25.56° C | 62% | 1017.4 hPa | 0 mm | - | 0 W/m² | - |
| 1788070132 | 25.56° C | 61% | 1017.3 hPa | 0 mm | - | 0 W/m² | - |
| 1788069828 | 25.56° C | 61% | 1017.5 hPa | 0 mm | - | 0 W/m² | - |
| 1788069528 | 26.11° C | 60% | 1017.4 hPa | 0 mm | - | 0 W/m² | - |
| 1788069223 | 26.11° C | 59% | 1017.4 hPa | 0 mm | - | 0 W/m² | - |
| 1788068918 | 26.67° C | 59% | 1017.3 hPa | 0 mm | - | 0 W/m² | - |
| 1788068614 | 26.67° C | 58% | 1017.2 hPa | 0 mm | - | 0 W/m² | - |
| 1788068310 | 26.67° C | 58% | 1017.2 hPa | 0 mm | - | 0 W/m² | - |
| 1788068005 | 26.67° C | 58% | 1017.2 hPa | 0 mm | - | 0 W/m² | - |
| 1788067704 | 26.67° C | 58% | 1017.2 hPa | 0 mm | - | 0 W/m² | - |
| 1788067400 | 26.67° C | 58% | 1017 hPa | 0 mm | - | 0 W/m² | - |
| 1788067095 | 27.22° C | 57% | 1017.2 hPa | 0 mm | - | 0 W/m² | - |
| 1788066790 | 27.22° C | 56% | 1017.1 hPa | 0 mm | - | 0 W/m² | - |
| 1788066489 | 27.78° C | 56% | 1017.2 hPa | 0 mm | - | 0 W/m² | - |
| 1788066185 | 27.78° C | 55% | 1017.1 hPa | 0 mm | - | 0 W/m² | - |
| 1788065882 | 27.78° C | 55% | 1017.1 hPa | 0 mm | - | 0 W/m² | - |
| 1788065578 | 28.33° C | 54% | 1017.2 hPa | 0 mm | - | 0 W/m² | - |
| 1788065277 | 28.33° C | 54% | 1017.1 hPa | 0 mm | - | 0 W/m² | - |
| 1788064973 | 28.33° C | 53% | 1017.1 hPa | 0 mm | - | 0 W/m² | - |
| 1788064668 | 28.33° C | 53% | 1017.2 hPa | 0 mm | - | 0 W/m² | - |
| 1788064368 | 28.33° C | 53% | 1017.1 hPa | 0 mm | - | 0 W/m² | - |
| 1788064065 | 28.89° C | 52% | 1016.9 hPa | 0 mm | - | 0 W/m² | - |
| 1788063760 | 28.89° C | 53% | 1017.2 hPa | 0 mm | - | 0 W/m² | - |
* Rain latest hour (hover to see other rain measurements)
** Current wind speed in m/s (hover to see current wind gust speed)